Flag for Rwanda Weather past 2 weeks in Kigali, Rwanda

68 °F

Passing clouds.

Feels Like: 68 °F
Forecast: 59 / 77 °F
Wind: No wind

Location: Kigali Airport

Current Time: Oct 10, 2015 at 9:06:22 PM

Latest Report: Oct 10, 2015 at 8:30 PM

Visibility: N/A

Pressure: 30.12 "Hg (25.13 "Hg at 1555m altitude)

Humidity: 88%

Dew point: 64 °F

Location of KigaliLocation

Historic Weather in Kigali — Graph


Kigali temperature yesterday

Maximum temperature yesterday: 81 °F (at 10:00 AM)
Minimum temperature yesterday: 66 °F (at 11:00 PM)
Average temperature yesterday: 74 °F

Past Weeks' High & Low Weather Summary

High90 °F (Sep 29, 3:00 PM)100% (Sep 26, 5:30 AM)30.24 "Hg (Sep 26, 5:30 AM)
Low61 °F (Sep 29, 6:00 AM)29% (Oct 6, 4:30 PM)29.92 "Hg (Sep 30, 3:30 PM)
Average73 °F71%30.10 "Hg
* Reported Sep 25 8:00 PM — Oct 10 8:00 PM, Kigali, Weather by CustomWeather, © 2015

Note: Actual official high and low records may vary slightly from our data, if they occured in-between our weather recording intervals... More about our weather records


Kigali weather history for previous 24 hours

Time TempWeatherWind HumidityBarometerVisibility
8:00 PM
Sat, Oct 10
68 °FPassing clouds.5 mph94%30.12 "HgN/A
7:30 PM68 °FPassing clouds.No wind88%30.09 "HgN/A
7:00 PM68 °FPassing clouds.No wind88%30.09 "HgN/A
6:30 PM70 °FPassing clouds.6 mph83%30.07 "HgN/A
6:00 PM72 °FPassing clouds.5 mph83%30.04 "HgN/A
5:30 PM75 °FScattered clouds.7 mph78%30.04 "HgN/A
5:00 PM75 °FScattered clouds.7 mph78%30.04 "HgN/A
4:30 PM73 °FScattered clouds.7 mph83%30.04 "HgN/A
4:00 PM72 °FThunderstorms. Scattered clouds.7 mph88%30.04 "HgN/A
3:30 PM70 °FThunderstorms. Partly sunny.7 mph94%30.04 "HgN/A
3:00 PM68 °FLight rain. Partly sunny.9 mph94%30.04 "HgN/A
2:30 PM75 °FThunderstorms. Partly sunny.9 mph78%30.04 "HgN/A
2:00 PM82 °FPartly sunny.9 mph62%30.04 "HgN/A
1:03 PM79 °FScattered clouds.8 mph74%30.07 "HgN/A
1:00 PM73 °FScattered clouds.6 mph100%30.09 "HgN/A
12:30 PM70 °FThunderstorms. Partly sunny.No wind94%30.12 "HgN/A
12:00 PM70 °FThunderstorms. Partly sunny.9 mph88%30.15 "HgN/A
11:30 AM77 °FThunderstorms. Partly sunny.7 mph61%30.15 "HgN/A
11:00 AM79 °FThunderstorms. Passing clouds.6 mph61%30.15 "HgN/A
10:30 AM82 °FScattered clouds.5 mph55%30.15 "HgN/A
10:00 AM81 °FScattered clouds.3 mph62%30.18 "HgN/A
9:30 AM75 °FScattered clouds.No wind74%30.18 "HgN/A
9:00 AM73 °FScattered clouds.No wind74%30.18 "HgN/A
8:30 AM70 °FBroken clouds.No wind83%30.18 "HgN/A
8:00 AM68 °FBroken clouds.5 mph88%30.18 "HgN/A
7:30 AM70 °FBroken clouds.No wind83%30.15 "HgN/A
7:00 AM66 °FBroken clouds.No wind100%30.12 "HgN/A
6:30 AM66 °FBroken clouds.6 mph100%30.12 "HgN/A
6:00 AM66 °FLight rain. Partly sunny.No wind94%30.12 "HgN/A
5:30 AM66 °FPassing clouds.5 mph88%30.12 "HgN/A
5:00 AM66 °FPassing clouds.No wind88%30.09 "HgN/A
4:30 AM66 °FPassing clouds.No wind88%30.09 "HgN/A
4:00 AM66 °FPassing clouds.3 mph88%30.09 "HgN/A
3:30 AM66 °FPassing clouds.3 mph88%30.09 "HgN/A
2:30 AM66 °FPassing clouds.No wind88%30.07 "HgN/A
2:00 AM66 °FMild.N/A88%30.07 "HgN/A
1:30 AM66 °FPassing clouds.No wind88%30.09 "HgN/A
1:00 AM68 °FPassing clouds.No wind83%30.09 "HgN/A
12:30 AM68 °FPassing clouds.5 mph83%30.12 "HgN/A
12:00 AM66 °FPassing clouds.No wind94%30.12 "HgN/A
11:00 PM
Fri, Oct 9
66 °FPassing clouds.3 mph88%30.12 "HgN/A
10:30 PM68 °FPassing clouds.5 mph83%30.12 "HgN/A
10:00 PM68 °FPassing clouds.3 mph83%30.12 "HgN/A
9:30 PM70 °FPassing clouds.3 mph83%30.12 "HgN/A
9:00 PM70 °FPassing clouds.No wind83%30.12 "HgN/A
Weather by CustomWeather, © 2015

See weather overviewHow to use our weather pages